Cecil Field, FL

12:09 PM EST on November 19, 2017 (GMT -0500)
Cecil

Weather History for KVQQ - April, 2014

Change the Weather History Date:

Monday, April 14, 2014

  Actual Average (KNIP) Record (KNIP)
Temperature  
Mean Temperature 72 °F -  
Max Temperature 86 °F 77 °F 90 °F (2007)
Min Temperature 59 °F 59 °F 45 °F (2004)
Cooling Degree Days 8    
Growing Degree Days 22 (Base 50)    
Moisture  
Dew Point 62 °F    
Average Humidity 83    
Maximum Humidity 100    
Minimum Humidity 45    
Precipitation  
Precipitation 0.00 in - - ()
Sea Level Pressure  
Sea Level Pressure 29.97 in    
Wind  
Wind Speed 2 mph (South)    
Max Wind Speed 15 mph    
Max Gust Speed -    
Visibility 9 miles    
Events      
Averages and records for this station are not official NWS values.
T = Trace of Precipitation, MM = Missing Value Source: NWS Daily Summary

Daily Weather History Graph

Daily Weather History Graph

Search for Another Location

Airport or City:

Trip Planner

Search our weather history database for the weather conditions in past years. The results will help you decide how hot, cold, wet, or windy it might be!

Date:

Astronomy

Apr. 14, 2014 Rise Set
Actual Time 7:01 AM EDT 7:54 PM EDT
Civil Twilight 6:37 AM EDT 8:18 PM EDT
Nautical Twilight 6:08 AM EDT 8:48 PM EDT
Astronomical Twilight 5:38 AM EDT 9:17 PM EDT
Moon 7:32 PM EDT (4/14) 6:29 AM EDT (4/14)
Length of Visible Light 13h 41m
Length of Day
12h 52m
Full, 100% of the Moon is Illuminated
Apr 14
Full
Apr 15
Full
Apr 22
Last Quarter
Apr 29
New
May 6
First Quarter

Hourly Weather History & Observations

Time (EDT) Temp. Heat Index Dew Point Humidity Pressure Visibility Wind Dir Wind Speed Gust Speed Precip Events Conditions
12:15 AM 62.6 °F - 60.8 °F 94% 30.07 in 10.0 mi Calm Calm - N/A   Clear
12:35 AM 60.8 °F - 59.0 °F 94% 30.07 in 9.0 mi Calm Calm - N/A   Clear
12:55 AM 62.6 °F - 60.8 °F 94% 30.06 in 8.0 mi Calm Calm - N/A   Clear
1:15 AM 62.6 °F - 59.0 °F 88% 30.05 in 9.0 mi Calm Calm - N/A   Clear
1:35 AM 60.8 °F - 59.0 °F 94% 30.05 in 9.0 mi Calm Calm - N/A   Clear
1:55 AM 60.8 °F - 59.0 °F 94% 30.05 in 7.0 mi Calm Calm - N/A   Clear
2:15 AM 59.0 °F - 59.0 °F 100% 30.05 in 8.0 mi Calm Calm - N/A   Clear
2:35 AM 59.0 °F - 59.0 °F 100% 30.04 in 7.0 mi Calm Calm - N/A   Clear
2:55 AM 59.0 °F - 59.0 °F 100% 30.03 in 5.0 mi Calm Calm - N/A   Clear
3:15 AM 59.0 °F - 59.0 °F 100% 30.02 in 6.0 mi Calm Calm - N/A   Clear
3:35 AM 59.0 °F - 59.0 °F 100% 30.02 in 6.0 mi Calm Calm - N/A   Clear
3:55 AM 59.0 °F - 57.2 °F 94% 30.01 in 7.0 mi Calm Calm - N/A   Scattered Clouds
4:15 AM 59.0 °F - 59.0 °F 100% 30.01 in 8.0 mi Calm Calm - N/A   Overcast
4:35 AM 60.8 °F - 59.0 °F 94% 30.00 in 5.0 mi Calm Calm - N/A   Overcast
4:55 AM 62.6 °F - 62.6 °F 100% 30.00 in 6.0 mi Calm Calm - N/A   Overcast
5:15 AM 62.6 °F - 62.6 °F 100% 30.00 in 8.0 mi Calm Calm - N/A   Mostly Cloudy
5:35 AM 62.6 °F - 62.6 °F 100% 29.99 in 7.0 mi Calm Calm - N/A   Mostly Cloudy
5:55 AM 62.6 °F - 62.6 °F 100% 30.00 in 7.0 mi Calm Calm - N/A   Mostly Cloudy
6:15 AM 62.6 °F - 62.6 °F 100% 29.99 in 6.0 mi Calm Calm - N/A   Overcast
6:35 AM 64.4 °F - 64.4 °F 100% 29.99 in 9.0 mi Calm Calm - N/A   Overcast
6:50 AM 66.2 °F - 64.4 °F 94% 29.98 in 10.0 mi Calm Calm - N/A   Overcast
7:50 AM 68.0 °F - 64.4 °F 88% 30.00 in 10.0 mi Calm Calm - N/A   Mostly Cloudy
8:50 AM 69.8 °F - 66.2 °F 88% 30.01 in 10.0 mi Calm Calm - N/A   Scattered Clouds
9:50 AM 75.2 °F - 66.2 °F 73% 30.00 in 10.0 mi Calm Calm - N/A   Scattered Clouds
10:50 AM 77.0 °F - 66.2 °F 69% 30.01 in 10.0 mi SSE 12.7 mph - N/A   Mostly Cloudy
11:50 AM 78.8 °F - 66.2 °F 65% 30.01 in 10.0 mi SSE 9.2 mph - N/A   Mostly Cloudy
12:50 PM 78.8 °F - 68.0 °F 69% 29.99 in 10.0 mi SSE 11.5 mph - N/A   Mostly Cloudy
2:50 PM 82.4 °F 84.6 °F 66.2 °F 58% 29.94 in 10.0 mi South 15.0 mph - N/A   Mostly Cloudy
3:50 PM 86.0 °F 86.6 °F 62.6 °F 45% 29.90 in 10.0 mi SSW 11.5 mph - N/A   Mostly Cloudy
4:50 PM 86.0 °F 86.6 °F 62.6 °F 45% 29.87 in 10.0 mi South 9.2 mph - N/A   Mostly Cloudy
5:50 PM 84.2 °F 86.6 °F 66.2 °F 55% 29.87 in 10.0 mi SSE 8.1 mph - N/A   Scattered Clouds
6:50 PM 78.8 °F - 68.0 °F 69% 29.86 in 10.0 mi SSE 8.1 mph - N/A   Scattered Clouds
7:50 PM 78.8 °F - 62.6 °F 57% 29.87 in 10.0 mi South 8.1 mph - N/A   Scattered Clouds
8:15 PM 77.0 °F - 59.0 °F 54% 29.88 in 10.0 mi SSW 5.8 mph - N/A   Mostly Cloudy
8:35 PM 75.2 °F - 59.0 °F 57% 29.88 in 10.0 mi SSW 8.1 mph - N/A   Scattered Clouds
8:55 PM 75.2 °F - 59.0 °F 57% 29.88 in 10.0 mi Calm Calm - N/A   Partly Cloudy
9:15 PM 73.4 °F - 59.0 °F 61% 29.88 in 10.0 mi Calm Calm - N/A   Clear
9:35 PM 69.8 °F - 60.8 °F 73% 29.89 in 10.0 mi Calm Calm - N/A   Clear
9:55 PM 68.0 °F - 60.8 °F 78% 29.90 in 10.0 mi Calm Calm - N/A   Clear
10:15 PM 68.0 °F - 59.0 °F 73% 29.90 in 10.0 mi Calm Calm - N/A   Clear
10:35 PM 66.2 °F - 60.8 °F 83% 29.90 in 10.0 mi Calm Calm - N/A   Clear
10:55 PM 64.4 °F - 62.6 °F 94% 29.90 in 10.0 mi Calm Calm - N/A   Clear
11:15 PM 64.4 °F - 62.6 °F 94% 29.89 in 10.0 mi Calm Calm - N/A   Clear
11:35 PM 62.6 °F - 60.8 °F 94% 29.88 in 10.0 mi Calm Calm - N/A   Clear
11:55 PM 62.6 °F - 59.0 °F 88% 29.88 in 10.0 mi Calm Calm - N/A   Clear